Location: Lone Pine Community Mobile Home Park
(42.7367°N, 73.8567°W)
Time: 06:09:19
(UTC+00:00)

In-Cosmos 22 Rocket - Pass Details

Date: 29 October 2020
Orbit: 790 x 888 km, 81.2° (Epoch: 27 November)

Event Time Altitude Azimuth Distance (km) Brightness Sun altitude
Rises 22:38:52 0° 353° (N) 3,314 7.3 -9.3°
Reaches altitude 10° 22:41:16 10° 357° (N) 2,389 6.5 -9.7°
Maximum altitude 22:46:36 61° 78° (ENE) 924 4.1 -10.7°
Drops below altitude 10° 22:52:01 10° 158° (SSE) 2,428 6.5 -11.7°
Sets 22:54:29 0° 162° (SSE) 3,373 7.2 -12.1°
